SCP
0 0 0 0 0 0 0 0 0 0 0 0 0 0 0 0 0 0 0 0 0 0 0 0 0 0 0 0 0 0 0 0 0 0 0 0 0 0 0 0 0 0 0
0 0 0 0 0 0 0 0 0 0 0 0 0 0 0 0 0 0 0 0 0 0 0 0 0 0 0 0 0 0 0 0 0 0 0 0 0 0 0 0 0 0 0
0 0 0 0 0 0 0 0 0 0 0 0 0 0 0 0 0 0 0 0 0 0 0 0 0 0 0 0 0 0 0 0 0 0 0 0 0 0 0 0 0 0 0
0 0 0 0 0 0 0 0 0 0 0 0 0 0 0 0 0 0 0 0 0 0 0 0 0 0 0 0 0 0 0 0 0 0 0 0 0 0 0 0 0 0 0
0 0 0 0 0 0 0 0 0 0 0 0 0 0 0 0 0 0 0 0 0 0 0 0 0 0 0 0 0 0 0 0 0 0 0 0 0 0 0 0 0 0 0
0 0 0 0 0 0 0 0 0 0 0 0 0 0 0 0 0 0 0 0 0 0 0 0 0 0 0 0 0 0 0 0 0 0 0 0 0 0 0 0 0 0 0
0 0 0 0 0 0 0 0 0 0 0 0 0 0 0 0 0 0 0 0 0 0 0 0 0 0 0 0 0 0 0 0 0 0 0 0 0 0 0 0 0 0 0
0 0 0 0 0 0 0 0 0 0 0 0 0 0 0 0 0 0 0 0 0 0 0 0 0 0 0 0 0 0 0 0 0 0 0 0 0 0 0 0 0 0 0
0 0 0 0 0 0 0 0 0 0 0 0 0 0 0 0 0 0 0 0 0 0 0 0 0 0 0 0 0 0 0 0 0 0 0 0 0 0 0 0 0 0 0
0 0 0 0 0 0 0 0 0 0 0 0 0 0 0 0 0 0 0 0 0 0 0 0 0 0 0 0 0 0 0 0 0 0 0 0 0 0 0 0 0 0 0
0 0 0 0 0 0 0 0 0 0 0 0 0 0 0 0 0 0 0 0 0 0 0 0 0 0 0 0 0 0 0 0 0 0 0 0 0 0 0 0 0 0 0
0 0 0 0 0 0 0 0 0 0 0 0 0 0 0 0 0 0 0 0 0 0 0 0 0 0 0 0 0 0 0 0 0 0 0 0 0 0 0 0 0 0 0
0 0 0 0 0 0 0 0 0 0 0 0 0 0 0 0 0 0 0 0 0 0 0 0 0 0 0 0 0 0 0 0 0 0 0 0 0 0 0 0 0 0 0
0 0 0 0 0 0 0 0 0 0 0 0 0 0 0 0 0 0 0 0 0 0 0 0 0 0 0 0 0 0 0 0 0 0 0 0 0 0 0 0 0 0 0
0 0 0 0 0 0 0 0 0 0 0 0 0 0 0 0 0 0 0 0 0 0 0 0 0 0 0 0 0 0 0 0 0 0 0 0 0 0 0 0 0 0 0
0 0 0 0 0 0 0 0 0 0 0 0 0 0 0 0 0 0 0 0 0 0 0 0 0 0 0 0 0 0 0 0 0 0 0 0 0 0 0 0 0 0 0
0 0 0 0 0 0 0 0 0 0 0 0 0 0 0 0 0 0 0 0 0 0 0 0 0 0 0 0 0 0 0 0 0 0 0 0 0 0 0 0 0 0 0
0 0 0 0 0 0 0 0 0 0 0 0 0 0 0 0 0 0 0 0 0 0 0 0 0 0 0 0 0 0 0 0 0 0 0 0 0 0 0 0 0 0 0
0 0 0 0 0 0 0 0 0 0 0 0 0 0 0 0 0 0 0 0 0 0 0 0 0 0 0 0 0 0 0 0 0 0 0 0 0 0 0 0 0 0 0
0 0 0 0 0 0 0 0 0 0 0 0 0 0 0 0 0 0 0 0 0 0 0 0 0 0 0 0 0 0 0 0 0 0 0 0 0 0 0 0 0 0 0
0 0 0 0 0 0 0 0 0 0 0 0 0 0 0 0 0 0 0 0 0 0 0 0 0 0 0 0 0 0 0 0 0 0 0 0 0 0 0 0 0 0 0
0 0 0 0 0 0 0 0 0 0 0 0 0 0 0 0 0 0 0 0 0 0 0 0 0 0 0 0 0 0 0 0 0 0 0 0 0 0 0 0 0 0 0
0 0 0 0 0 0 0 0 0 0 0 0 0 0 0 0 0 0 0 0 0 0 0 0 0 0 0 0 0 0 0 0 0 0 0 0 0 0 0 0 0 0 0
0 0 0 0 0 0 0 0 0 0 0 0 0 0 0 0 0 0 0 0 0 0 0 0 0 0 0 0 0 0 0 0 0 0 0 0 0 0 0 0 0 0 0
0 0 0 0 0 0 0 0 0 0 0 0 0 0 0 0 0 0 0 0 0 0 0 0 0 0 0 0 0 0 0 0 0 0 0 0 0 0 0 0 0 0 0
0 0 0 0 0 0 0 0 0 0 0 0 0 0 0 0 0 0 0 0 0 0 0 0 0 0 0 0 0 0 0 0 0 0 0 0 0 0 0 0 0 0 0
Wind_Speed
7 7 8 9 8 7 7 6 6 5 4 3 3 3 2 2 2 2 3 4 3 4 4 3 3 4 4 4 4 3 4 3 3 3 4 4 3 3 3 3 3 4 5
7 8 8 9 8 8 7 7 7 6 5 3 3 2 3 2 2 2 3 3 4 4 4 4 3 3 3 5 5 4 3 3 4 2 2 4 5 4 3 3 2 2 2
11 10 10 9 9 9 9 8 7 6 6 5 3 2 3 2 2 1 1 2 3 4 4 4 3 3 3 3 3 3 3 2 3 2 2 2 2 4 4 4 4 4 2
9 9 11 10 11 11 9 8 8 7 6 5 5 4 3 2 3 2 2 2 3 3 4 4 4 3 2 2 2 2 2 2 2 2 1 1 3 1 4 4 4 5 4
12 12 12 13 12 12 10 9 8 7 7 6 7 6 4 3 2 2 2 2 1 2 4 5 4 3 2 2 1 1 2 1 1 1 1 1 1 1 1 3 5 5 3
12 12 11 11 11 11 9 9 9 8 7 7 7 7 7 5 4 3 2 1 1 1 4 5 4 3 2 2 1 0 1 0 0 0 0 0 0 1 0 2 3 4 4
12 12 11 11 12 12 11 10 11 9 8 8 7 7 7 7 6 4 3 2 1 2 4 4 4 3 3 3 2 1 1 1 1 1 1 1 2 2 2 2 2 3 4
12 14 14 13 13 14 13 12 12 9 9 8 7 7 7 5 4 4 4 4 3 3 4 5 5 4 4 3 3 2 2 2 2 2 2 2 2 2 2 2 1 2 3
14 15 14 13 13 13 13 14 13 10 9 9 7 7 7 6 6 5 4 3 3 3 5 5 5 5 5 4 4 3 3 3 3 3 3 2 2 2 2 2 2 2 2
14 14 13 13 12 12 11 11 12 11 9 9 8 7 7 7 6 5 5 5 4 4 5 5 5 5 5 5 4 4 4 4 4 3 4 3 3 3 2 2 2 3 3
15 14 13 12 11 10 10 10 10 9 8 9 8 7 7 7 6 6 6 6 5 5 5 6 5 5 5 5 5 5 5 5 5 4 4 5 4 3 3 2 2 2 3
13 13 12 10 10 10 11 11 11 10 10 9 8 8 7 7 6 6 6 6 6 6 6 6 6 6 6 5 6 6 6 6 6 6 5 6 4 4 4 3 3 3 3
10 9 9 10 11 12 12 12 12 11 10 9 9 8 7 7 7 7 6 6 6 6 6 6 6 6 6 6 6 6 6 6 7 6 6 6 5 5 4 4 4 4 4
10 10 10 11 12 12 12 12 12 11 10 9 9 9 9 9 8 7 7 7 7 7 7 7 7 7 7 6 6 6 6 6 6 6 6 6 6 7 6 5 5 5 4
10 12 12 11 11 11 11 11 11 10 10 10 10 10 9 8 8 7 7 7 7 8 7 7 7 6 6 6 7 6 6 6 6 5 6 6 9 10 8 6 5 5 4
9 11 12 12 13 14 13 12 12 11 10 11 11 10 9 8 8 8 8 7 7 7 6 7 7 7 6 8 10 8 6 5 6 6 6 6 8 10 11 12 11 9 7
5 7 9 11 12 13 13 14 14 11 10 11 10 9 10 10 10 9 8 8 8 7 7 7 7 7 8 11 11 12 7 6 6 7 6 6 7 8 6 7 9 9 12
2 4 5 6 7 8 9 10 9 9 11 10 9 9 10 10 9 9 9 9 7 6 6 7 7 7 8 11 12 13 8 7 7 7 7 7 8 8 8 7 7 7 7
3 0 3 3 4 5 6 7 7 7 8 9 10 10 10 10 9 9 9 8 6 7 7 6 7 8 8 11 13 12 5 6 8 8 8 8 8 12 13 8 8 8 7
9 8 7 7 5 3 1 3 5 6 8 10 10 9 9 9 9 10 9 7 7 8 7 7 7 8 9 11 13 13 5 6 7 6 7 12 12 13 12 8 7 9 9
11 10 10 10 8 7 4 2 1 3 6 5 4 5 6 7 7 6 5 5 6 7 7 8 8 8 10 11 14 14 7 8 7 6 6 7 12 13 13 10 8 11 9
11 11 10 9 9 9 7 6 4 4 3 1 0 2 3 3 4 5 5 5 6 7 7 7 8 7 8 11 12 15 16 13 8 8 7 7 12 12 11 8 9 12 8
8 7 8 9 9 9 8 7 6 5 5 4 3 2 2 2 2 3 4 4 5 6 7 7 8 8 6 8 14 16 16 17 11 8 11 11 12 11 8 11 12 9 5
6 6 8 8 8 8 8 6 5 6 6 6 5 4 4 4 4 3 3 4 5 6 7 7 8 8 6 6 6 6 8 11 11 9 9 11 11 10 9 9 8 6 6
5 5 6 6 6 6 6 6 6 5 6 5 5 4 4 4 5 5 5 6 7 8 9 9 8 8 9 11 12 8 7 7 7 5 3 3 4 4 5 5 6 6 6
5 5 5 5 5 6 6 6 5 5 5 5 5 4 4 4 5 6 8 10 12 15 16 17 14 11 13 13 13 15 14 12 10 6 4 5 6 7 7 7 7 6 7
Wind_Direction
163 159 160 155 146 141 143 151 148 152 134 121 122 123 137 152 156 172 154 138 119 100 89 73 52 44 42 27 19 23 22 8 2 17 344 331 328 316 290 269 252 238 227
166 165 167 162 159 158 160 163 162 161 155 152 157 159 152 160 166 167 159 159 141 133 118 102 82 60 48 33 33 40 35 3 18 39 23 350 342 337 341 344 326 278 249
174 172 172 174 169 170 176 176 178 173 171 161 133 98 76 68 76 112 181 197 169 152 134 125 110 83 73 53 47 55 65 23 355 35 85 65 315 313 323 347 2 349 322
178 180 178 180 182 185 184 181 182 181 178 162 148 146 146 156 181 181 196 213 194 171 155 140 127 109 96 79 50 73 75 71 13 357 36 167 197 253 318 326 343 344 340
185 188 187 187 189 189 188 186 183 185 181 170 159 148 146 158 161 149 160 201 235 192 169 153 143 132 122 117 83 60 54 81 96 345 340 354 11 94 147 312 327 333 329
190 192 193 190 193 193 190 184 183 188 182 174 165 158 158 164 160 164 177 222 275 183 173 162 158 157 157 165 173 147 22 358 295 262 220 105 359 323 1 281 303 310 305
190 193 195 194 196 195 194 188 184 188 183 176 173 171 170 171 175 183 188 193 190 179 184 169 175 182 191 197 197 209 263 276 269 256 246 224 220 214 201 225 276 294 298
193 197 201 199 197 195 193 188 186 186 182 179 180 177 170 167 172 180 177 181 189 195 191 183 190 200 204 210 202 209 239 235 252 262 250 243 252 223 205 207 234 310 313
197 201 203 200 195 192 190 188 184 182 182 181 176 177 176 173 175 178 175 180 192 189 182 188 197 210 214 218 213 223 239 242 248 253 251 245 249 240 227 206 181 186 280
200 203 202 199 196 191 187 181 179 180 179 177 179 184 185 183 180 178 186 191 196 186 182 196 204 214 221 222 218 228 237 238 248 241 246 252 249 252 244 227 205 181 192
200 201 202 198 189 180 174 174 176 172 174 179 181 177 183 185 183 188 200 201 205 203 201 205 208 215 223 224 220 230 235 236 246 250 244 251 249 249 251 244 235 220 193
200 199 194 183 175 174 173 175 177 176 180 180 176 179 182 182 186 198 208 207 210 210 209 208 211 219 222 220 217 228 231 227 234 241 241 249 251 246 245 241 243 243 227
197 190 181 176 177 178 178 179 181 183 181 177 176 180 185 188 196 204 207 206 207 212 213 208 213 221 222 219 219 221 226 226 228 230 230 238 238 245 244 240 241 243 251
187 182 181 182 182 181 181 183 187 186 182 179 180 187 194 196 200 203 205 207 207 209 214 215 217 220 220 220 221 220 224 229 232 229 227 230 226 233 238 242 239 237 246
179 181 182 183 185 185 188 189 191 190 185 182 189 197 198 196 197 201 207 209 210 214 214 216 222 223 220 223 218 218 222 224 231 234 233 234 236 236 233 234 231 230 233
182 183 183 184 189 192 193 194 197 195 186 189 198 197 191 194 199 204 206 208 213 217 215 218 221 223 226 224 216 205 210 212 218 231 240 248 254 255 252 251 245 227 222
172 180 186 191 196 198 195 198 201 193 190 197 200 195 192 197 204 206 205 209 213 215 217 222 221 226 231 230 226 219 209 213 220 226 235 250 252 252 249 260 266 258 244
148 184 195 198 201 197 197 199 190 187 193 199 201 198 195 202 204 202 207 212 210 210 217 223 225 229 236 232 231 228 217 218 226 226 226 234 249 253 245 248 255 254 252
42 214 203 204 205 209 203 185 186 189 193 200 202 200 198 201 202 207 213 210 205 213 215 216 221 227 240 238 235 226 211 224 234 234 231 231 241 250 249 245 249 256 259
34 32 31 35 25 317 222 173 195 194 211 215 211 204 198 199 204 212 215 210 207 216 218 224 222 225 235 239 235 223 206 225 238 240 238 237 240 249 250 237 235 247 253
38 38 42 40 22 11 46 68 349 253 244 236 215 206 206 210 214 218 218 216 218 222 224 230 233 230 234 239 237 224 206 220 230 236 239 237 238 244 249 240 227 238 242
37 37 40 35 25 26 43 43 7 312 332 12 253 232 224 224 227 226 232 228 225 230 235 236 245 243 239 236 239 232 220 216 219 231 234 233 235 239 245 241 233 241 243
37 33 38 34 25 25 38 35 357 2 24 30 11 340 312 284 263 240 244 247 236 236 242 239 245 250 243 240 240 239 232 223 219 231 231 229 232 236 243 243 243 242 230
33 32 38 35 22 16 28 25 16 31 38 28 10 355 343 327 316 294 267 256 251 250 250 245 247 249 249 244 238 233 233 229 225 232 237 238 241 240 242 247 247 233 222
22 32 38 31 16 13 19 19 23 34 34 19 1 346 333 317 306 295 278 268 256 249 249 251 244 242 247 242 225 213 215 209 208 194 207 218 224 231 237 242 242 234 225
21 25 25 23 14 18 16 9 15 32 31 9 349 334 326 317 307 302 301 283 272 271 261 254 249 246 242 245 233 223 219 209 184 168 205 222 227 235 241 243 245 237 231